Location: Aldenham
(51.6667°N, 0.3500°W)
Time: 16:57:53
(UTC+00:00)

Explorer 7 - Pass Details

Date: 16 February 2026
Orbit: 430 x 542 km, 50.2° (Epoch: 8 March)

Event Time Altitude Azimuth Distance (km) Brightness Sun altitude
Rises 17:17:19 0° 248° (WSW) 2,468 13.9 -0.7°
Reaches altitude 10° 17:19:26 10° 245° (WSW) 1,614 11.3 -1.1°
Maximum altitude 17:23:01 57° 166° (SSE) 565 7.0 -1.6°
Drops below altitude 10° 17:26:46 10° 87° (E) 1,686 8.7 -2.1°
Enters shadow 17:28:22 - 84° (E) 2,334 9.4 -2.4°
Sets 17:29:01 0° 83° (E) 2,592 - -2.5°
